This is the latest recevied weather packets stored in our database for station/object OE6PLD-13. If no packets are shown the sender has not sent any weather packets the latest 10 day(s).
| Time | Temp. | Humidity | Pressure | Rain* | Wind** | Luminosity | Snow |
|---|---|---|---|---|---|---|---|
| 1777564353 | 15.56° C | 28% | 1011.8 hPa | 0.76 mm | - | 173 W/m² | - |
| 1777564169 | 15° C | 29% | 1011.9 hPa | 0.76 mm | - | 79 W/m² | - |
| 1777563986 | 15° C | 29% | 1011.8 hPa | 0.76 mm | - | 163 W/m² | - |
| 1777563802 | 15° C | 28% | 1011.8 hPa | 0.76 mm | - | 167 W/m² | - |
| 1777563619 | 15° C | 29% | 1012 hPa | 0.76 mm | - | 69 W/m² | - |
| 1777563436 | 15° C | 28% | 1011.9 hPa | 0.76 mm | - | 155 W/m² | - |
| 1777563252 | 15° C | 29% | 1011.8 hPa | 0.76 mm | - | 161 W/m² | - |
| 1777563069 | 15° C | 27% | 1011.9 hPa | 0.76 mm | - | 172 W/m² | - |
| 1777562886 | 15.56° C | 27% | 1012.1 hPa | 0.76 mm | - | 188 W/m² | - |
| 1777562702 | 15.56° C | 28% | 1011.8 hPa | 0.76 mm | - | 198 W/m² | - |
| 1777562519 | 15.56° C | 28% | 1012 hPa | 0.76 mm | - | 213 W/m² | - |
| 1777562336 | 15° C | 27% | 1011.9 hPa | 0.76 mm | - | 213 W/m² | - |
| 1777562152 | 15° C | 27% | 1011.9 hPa | 0.76 mm | - | 211 W/m² | - |
| 1777561969 | 15° C | 27% | 1012.1 hPa | 0.76 mm | - | 224 W/m² | - |
| 1777561786 | 15° C | 26% | 1012 hPa | 0.76 mm | - | 243 W/m² | - |
| 1777561602 | 15.56° C | 28% | 1011.8 hPa | 0.76 mm | - | 248 W/m² | - |
| 1777561419 | 15° C | 27% | 1011.8 hPa | 0.76 mm | - | 262 W/m² | - |
| 1777561236 | 15.56° C | 24% | 1011.9 hPa | 0.76 mm | - | 263 W/m² | - |
| 1777561052 | 15.56° C | 27% | 1012 hPa | 0.76 mm | - | 265 W/m² | - |
| 1777560868 | 15° C | 29% | 1011.9 hPa | 0.76 mm | - | 278 W/m² | - |
| 1777560685 | 15° C | 28% | 1012 hPa | 0.76 mm | - | 287 W/m² | - |
| 1777560502 | 15° C | 27% | 1012 hPa | 0.76 mm | - | 289 W/m² | - |
| 1777560318 | 15° C | 26% | 1012.1 hPa | 0.76 mm | - | 306 W/m² | - |
| 1777560135 | 15.56° C | 27% | 1012.1 hPa | 0.76 mm | - | 331 W/m² | - |
| 1777559952 | 15.56° C | 27% | 1012 hPa | 0.76 mm | - | 344 W/m² | - |
* Rain latest hour (hover to see other rain measurements)
** Current wind speed in m/s (hover to see current wind gust speed)